Epoch 2003 Jan. 1.0 TT = JDT 2452640.5 T 2002 Dec. 14.88307 TT MPC q 1.8136046 (2000.0) P Q n 0.05762238 Peri. 14.92931 -0.37628843 -0.91990894 a 6.6385811 Node 97.27277 +0.83824380 -0.38874899 e 0.7268084 Incl. 6.38642 +0.39465725 -0.05139816 P 17.10
m1 = 7.5 + 5 logΔ + 27 log r(t - 28)